RH
17 16 15 15 14 12 13 11 12 33 61 68 62 69 68 47 45 46 33 33 37 36 37 40 41 26 15 26 46 58 46 35 40 31 27 30 18 13 20 23 24 21 18 15 13 12 13 20 32 39 46 52 52 58 67 62 53 52 53 53 49 57 74 73 78 89 73 54 51 59 73 77 71 69 68 69 67 63 61 63 61 52 43 38 32 23
17 17 16 15 14 13 13 11 16 25 36 50 59 67 69 54 50 48 41 45 43 41 50 48 38 23 18 25 35 56 62 40 27 29 30 23 15 17 19 19 23 22 17 13 12 14 21 31 44 61 66 57 51 49 44 39 40 48 55 56 55 66 78 76 77 78 67 61 63 68 78 86 83 74 69 68 64 61 62 63 54 42 33 28 23 18
17 17 17 17 15 13 14 14 16 16 12 28 51 56 59 58 51 51 50 49 49 45 48 56 43 22 28 34 21 36 62 47 22 22 25 20 17 18 19 20 19 17 15 15 16 18 30 50 61 67 65 54 51 51 44 37 37 46 59 66 68 73 80 84 85 78 70 70 73 74 82 92 88 74 66 64 59 57 60 56 45 36 31 26 22 19
18 19 18 17 18 14 14 15 12 13 10 17 34 30 40 64 57 54 57 52 59 56 42 49 45 45 64 46 19 43 69 53 31 27 24 18 19 18 17 23 24 21 19 18 19 24 38 57 66 60 51 48 50 50 47 44 44 48 54 65 75 78 81 88 89 79 74 77 79 76 79 87 86 74 66 61 53 52 51 48 42 38 34 31 27 25
18 29 30 20 19 18 15 16 12 12 11 12 21 11 25 65 67 55 58 63 74 63 42 39 40 68 83 46 38 64 60 43 35 31 24 19 22 23 23 30 29 21 22 28 35 48 59 56 52 50 47 50 52 52 54 50 48 51 49 54 68 78 86 90 84 76 79 82 78 74 74 82 85 77 69 59 49 45 45 45 45 41 38 35 32 29
26 43 43 28 22 19 16 16 13 13 12 9 12 9 15 48 68 66 64 68 68 59 52 39 29 52 53 40 68 70 33 26 30 23 18 20 21 20 29 36 27 18 24 48 71 78 73 57 48 49 47 49 54 59 64 57 51 53 52 54 62 72 85 92 88 83 84 83 80 75 71 78 85 80 69 56 45 40 42 46 46 43 39 36 33 30
33 42 34 27 26 21 18 19 15 14 14 10 10 11 10 22 49 68 74 71 59 60 70 46 20 33 42 55 80 63 29 26 29 23 20 30 28 17 27 29 29 46 50 62 83 81 72 68 62 56 47 46 58 68 71 63 57 56 57 59 63 69 79 87 88 84 78 79 83 79 70 72 80 80 69 54 44 38 37 42 43 41 38 35 33 30
34 33 24 23 25 23 22 20 17 16 13 12 13 14 13 11 23 49 67 76 75 73 77 58 30 30 49 68 70 55 42 33 34 33 23 29 30 23 30 28 42 74 65 54 72 77 75 75 66 56 47 44 54 65 67 62 57 57 58 55 56 66 75 80 86 86 76 76 86 85 76 73 75 77 69 59 53 41 35 40 41 39 37 33 31 29
33 26 25 24 24 24 25 21 19 19 14 16 16 19 26 14 13 40 55 67 85 83 72 69 55 40 45 57 62 65 56 39 37 34 22 23 27 35 46 48 64 72 45 45 74 80 73 70 63 55 47 42 47 56 60 59 55 56 59 53 52 67 78 84 90 90 80 75 81 85 80 73 74 75 70 68 66 48 36 38 37 36 35 31 30 30
46 32 26 25 25 25 25 21 19 18 14 17 15 20 33 18 9 31 37 45 73 75 64 68 69 66 61 54 61 72 62 47 40 33 30 29 28 41 47 46 61 57 35 46 74 79 71 69 67 58 48 42 40 44 50 53 51 52 55 56 58 69 81 91 94 89 81 76 76 76 73 69 71 73 72 76 71 50 37 38 36 32 31 30 32 34
51 36 24 24 25 25 25 21 22 24 20 18 16 21 33 26 15 21 22 38 67 65 52 59 69 76 77 71 71 72 66 62 51 43 50 48 36 38 38 38 46 45 40 48 66 74 67 66 66 56 49 45 39 38 40 40 43 45 51 59 62 63 68 79 82 77 75 80 82 77 71 71 70 69 75 80 67 47 39 38 35 31 29 30 34 40
34 27 23 24 24 26 26 22 24 30 25 17 17 23 39 50 39 26 26 39 55 47 36 55 73 69 68 74 71 66 71 68 54 53 67 68 56 46 46 51 51 50 56 62 69 68 57 57 60 53 48 45 40 39 37 35 34 36 41 47 49 47 48 57 65 67 72 79 83 74 66 68 64 61 73 78 65 54 49 42 35 29 26 27 32 40
26 25 24 24 27 28 26 24 24 28 24 18 21 22 42 76 68 41 41 46 40 31 30 57 80 72 69 79 77 74 77 64 53 63 73 72 67 59 55 55 54 58 65 65 63 57 50 51 52 52 50 48 48 46 44 42 36 32 33 34 37 37 37 42 47 52 58 62 67 65 61 60 54 53 67 73 66 65 61 48 35 27 25 26 31 38
27 28 25 25 29 29 29 28 25 31 26 17 23 20 32 80 86 58 58 64 53 43 41 52 66 72 77 74 67 70 71 59 60 71 72 68 62 53 49 50 52 54 57 65 67 55 49 50 47 48 48 45 48 49 46 44 40 36 33 30 32 33 36 40 41 43 43 45 56 63 61 56 50 50 59 62 61 64 65 54 36 26 28 30 32 36
35 33 28 25 27 28 32 27 27 49 49 23 18 26 43 76 81 66 73 82 76 71 70 65 61 71 79 69 63 68 65 59 60 59 61 65 55 43 42 46 50 52 50 61 73 58 47 49 44 39 40 41 44 46 42 38 36 34 33 33 32 30 31 34 40 47 48 48 57 63 61 57 55 55 56 60 63 66 70 64 46 34 34 35 34 34
44 46 41 33 28 27 31 28 27 50 69 51 20 18 51 79 75 72 80 83 81 80 82 83 79 79 75 70 79 83 68 59 55 51 57 66 57 47 47 47 51 60 51 47 66 68 50 44 41 35 41 48 48 43 37 31 29 26 28 34 35 31 29 27 33 44 52 55 58 62 62 59 58 57 57 63 70 73 74 72 62 49 41 38 37 33
50 63 66 58 46 33 30 33 29 33 60 76 50 33 64 88 82 80 83 78 79 78 73 76 81 79 67 63 74 75 61 53 52 52 55 60 61 58 58 56 56 60 48 33 52 67 46 34 40 38 38 42 38 33 29 25 22 20 24 31 33 32 32 31 29 32 42 49 53 59 64 65 64 62 60 65 75 78 75 73 70 59 47 41 38 35
58 72 82 82 75 61 43 34 32 30 41 65 72 65 75 86 82 83 84 78 78 78 75 74 75 73 67 61 59 58 56 53 52 50 48 55 70 74 67 62 58 59 58 47 45 47 34 30 40 37 31 30 27 25 25 21 17 17 21 26 28 29 32 36 34 33 39 45 51 57 63 67 67 64 65 71 82 86 78 72 71 64 52 43 40 40
61 71 77 80 89 93 75 46 36 35 33 51 73 68 61 70 80 87 88 82 81 81 78 78 75 70 72 64 50 48 50 48 49 50 44 47 66 77 69 62 58 61 73 70 53 42 35 33 37 36 33 30 26 23 21 20 18 17 21 27 26 24 27 33 38 49 56 55 55 59 64 69 72 75 78 79 86 92 83 73 71 66 56 46 43 45
64 68 73 75 86 103 97 66 49 46 44 58 72 64 62 74 80 87 89 81 85 87 81 82 80 72 74 69 57 56 51 44 50 56 54 53 61 68 61 52 46 42 49 55 48 42 39 34 34 34 33 31 29 26 21 21 20 18 27 39 33 24 25 25 29 42 53 54 54 56 62 68 75 86 91 84 83 89 87 78 71 65 58 49 45 43
81 75 80 83 84 92 95 84 72 63 60 68 69 59 68 81 79 82 85 76 77 82 79 84 84 74 77 74 66 66 56 42 45 51 54 56 59 59 50 44 42 37 38 43 42 41 40 36 33 30 29 29 29 28 24 24 23 20 32 46 41 35 35 30 26 27 34 42 48 54 63 67 70 84 96 92 86 88 91 87 75 65 60 52 46 42
94 81 82 88 84 79 84 96 99 86 78 84 81 64 66 83 85 83 83 75 72 73 71 76 76 73 81 80 69 65 57 48 49 50 52 51 52 56 52 48 49 44 40 40 40 41 40 36 32 28 29 29 28 29 28 27 24 21 26 33 36 42 43 40 33 27 28 32 38 47 55 57 61 76 94 97 93 93 97 95 81 68 61 56 50 45
84 79 80 83 84 81 83 92 97 94 90 92 94 84 80 87 84 80 85 82 79 79 75 77 77 72 76 76 66 64 68 68 64 63 63 57 51 57 59 57 54 48 42 39 37 37 34 30 28 29 31 30 30 31 30 29 27 25 25 24 27 31 32 32 30 27 26 25 28 32 35 46 60 72 91 100 96 97 100 98 88 73 65 60 55 50
81 81 80 78 80 85 90 90 88 91 90 86 91 96 94 88 81 83 90 86 85 86 79 81 85 75 72 76 70 68 72 70 63 62 65 60 54 57 58 54 50 45 43 41 37 34 32 30 30 32 32 32 32 30 29 31 29 27 28 29 29 27 26 28 30 31 31 27 28 24 24 46 59 60 83 102 98 98 101 99 94 80 69 65 60 56
84 86 86 86 86 84 87 89 90 95 89 77 83 94 93 88 86 92 91 81 82 88 86 91 91 75 68 71 70 71 73 67 62 62 65 64 60 55 53 49 46 46 46 44 42 40 38 37 35 35 33 31 30 29 29 30 28 27 28 28 28 28 29 33 34 33 31 29 33 29 24 35 39 47 84 104 97 99 101 100 99 88 77 73 68 65
82 91 90 91 91 85 85 87 90 95 89 76 76 85 90 93 94 96 94 87 86 88 88 89 81 70 67 63 58 67 78 77 71 67 68 68 59 51 52 54 52 50 49 48 46 44 43 41 38 35 33 30 29 29 29 29 28 28 27 26 27 29 31 33 32 30 29 28 33 36 34 31 31 53 90 98 91 97 100 100 101 93 88 86 81 77
83 85 80 82 86 85 86 87 88 94 92 82 77 80 89 97 99 97 91 85 85 86 84 76 68 70 77 73 65 68 75 76 73 72 74 71 62 58 60 60 56 54 56 52 47 43 41 41 39 35 33 33 32 31 33 36 34 30 28 27 27 28 28 29 28 26 24 25 30 36 41 40 41 61 86 90 90 98 100 100 100 95 94 93 86 78
87 85 77 78 84 85 82 83 91 99 97 91 87 89 94 92 86 85 85 81 81 85 85 79 75 80 83 81 78 74 70 69 70 72 73 69 64 61 58 56 57 59 58 50 46 50 49 43 42 40 37 36 34 34 38 38 33 30 31 29 26 26 25 28 39 43 34 28 30 35 43 48 49 59 74 83 91 98 97 98 101 99 96 90 80 75
83 85 82 80 84 86 83 82 91 97 97 97 95 94 94 88 75 73 82 84 80 81 83 81 83 86 84 80 79 75 69 67 69 72 75 71 67 65 63 66 70 67 58 49 53 66 64 50 43 41 39 38 36 35 33 31 30 32 34 32 30 28 25 34 61 78 66 45 32 30 36 38 37 41 53 64 80 94 96 95 99 100 97 93 86 80
74 75 75 74 78 81 81 83 87 88 87 93 100 98 94 90 80 70 71 73 74 78 81 81 82 83 78 75 77 76 71 70 74 83 89 86 81 81 80 79 81 79 74 69 67 65 58 51 45 41 38 37 35 32 29 30 34 35 34 35 35 32 30 39 58 74 76 63 44 34 32 28 23 28 39 51 66 85 93 94 98 99 96 92 86 79
71 73 71 70 71 72 74 77 80 80 77 79 91 99 96 91 87 81 76 72 74 80 81 78 78 77 75 74 74 73 72 75 82 89 93 89 86 87 82 75 78 82 82 85 83 70 59 55 50 44 42 39 35 31 34 39 41 38 36 40 41 37 35 42 48 55 64 63 47 36 34 36 36 35 42 54 67 82 90 87 86 90 92 89 86 84
72 72 68 67 67 64 64 66 68 72 72 68 74 86 94 96 93 93 92 85 80 82 80 75 75 76 76 73 67 63 65 74 82 84 81 78 76 78 76 72 74 76 74 77 82 77 71 68 64 57 51 44 36 32 36 41 40 39 38 37 36 34 33 37 42 47 51 52 50 47 40 40 45 45 48 57 63 70 79 76 68 67 71 75 80 82
81 76 68 66 67 63 60 63 66 70 70 69 72 79 88 96 98 97 100 98 92 89 84 77 76 79 79 73 68 66 67 73 83 85 80 75 70 69 69 64 61 63 63 65 67 67 68 74 77 72 63 53 45 41 41 40 38 39 39 33 30 31 30 32 36 39 40 41 52 63 59 54 59 65 71 77 76 78 86 85 70 56 54 63 72 75
78 76 70 67 71 71 61 58 65 71 74 79 88 92 89 92 99 100 99 101 99 96 94 87 81 80 80 76 73 75 76 77 83 86 83 77 70 65 63 59 60 68 70 67 67 68 70 76 75 70 65 61 54 48 43 42 43 43 41 37 34 32 30 30 32 37 40 38 41 58 72 78 79 78 80 85 85 80 74 64 50 40 44 59 67 64
69 71 73 67 67 68 60 59 65 69 73 82 94 101 97 95 100 101 100 101 101 99 99 97 90 86 84 80 74 73 74 75 77 79 78 74 69 64 58 54 62 77 81 80 84 86 88 88 77 64 59 58 55 52 49 51 52 50 47 44 42 39 37 35 34 36 40 38 33 37 49 57 59 57 56 61 63 55 44 37 34 31 33 44 53 51
54 61 68 61 60 64 62 64 67 66 71 80 87 90 91 92 96 99 100 101 100 99 100 100 99 97 93 90 85 78 74 73 74 74 70 66 63 59 53 51 55 66 76 88 98 100 98 94 84 74 69 64 60 59 59 60 60 57 56 54 50 49 48 46 46 45 43 41 38 36 36 36 38 39 37 38 40 36 32 33 34 33 34 38 43 43
46 50 52 48 55 67 66 66 74 76 72 73 76 78 78 80 88 96 100 101 100 100 100 99 99 100 98 98 98 94 89 85 83 80 73 66 63 61 60 61 61 64 72 83 92 95 94 92 91 92 91 84 76 71 67 64 61 55 53 53 55 59 59 57 59 59 54 48 42 39 38 36 35 35 32 30 30 29 30 32 33 35 40 41 39 36
43 41 38 39 47 55 55 58 76 87 82 77 81 84 79 75 80 87 92 97 99 98 98 99 100 101 100 99 100 100 99 96 93 87 79 75 78 80 79 76 74 77 78 77 80 84 86 90 96 100 100 94 85 77 70 66 63 60 59 61 68 73 74 74 73 71 69 67 60 56 57 56 54 51 46 40 36 32 30 29 29 32 35 35 34 33
46 39 35 38 48 57 57 54 66 85 93 88 81 79 80 81 81 82 84 89 92 94 97 99 99 96 95 95 95 96 97 96 94 89 87 89 94 98 97 93 91 93 88 82 83 85 85 89 97 100 100 96 87 81 77 76 80 84 85 88 91 90 88 88 85 76 72 75 75 76 78 78 74 69 62 54 48 44 41 36 33 33 31 30 29 30
58 52 43 39 48 60 63 63 69 83 94 89 78 78 87 92 90 89 93 95 95 95 95 91 87 84 84 85 87 86 85 85 84 85 89 94 97 99 100 101 101 101 96 88 84 83 82 87 93 96 95 92 86 83 84 87 91 93 93 94 97 95 92 89 84 76 71 71 72 74 76 75 71 67 66 62 54 52 53 50 47 45 43 41 40 37
82 76 65 55 55 59 64 72 79 83 87 89 87 90 96 98 97 97 100 101 99 95 91 84 80 80 80 80 80 81 78 74 71 71 73 76 79 81 85 89 92 94 93 88 82 79 80 83 86 88 87 85 81 79 80 83 83 83 83 86 90 93 94 93 89 85 81 75 69 68 74 78 76 74 76 73 64 63 66 64 59 57 55 57 59 59
92 90 85 80 77 76 78 83 84 84 87 90 93 98 99 98 100 101 100 100 97 90 85 83 83 84 84 83 83 83 78 71 66 64 62 59 59 59 60 64 68 70 72 74 75 75 76 76 76 76 75 74 72 69 68 68 66 65 66 67 70 77 86 92 96 97 96 90 82 79 84 88 87 85 85 85 82 82 82 73 67 67 65 61 60 64
83 90 97 95 91 90 91 88 84 85 88 86 88 97 100 99 100 101 100 101 98 92 91 94 96 97 95 93 89 83 76 69 64 61 59 57 54 52 49 49 49 49 50 53 55 57 58 59 59 59 59 60 60 59 58 58 57 56 56 55 55 57 62 66 69 72 79 85 90 95 99 100 94 88 86 86 82 76 66 55 55 67 74 72 66 63
76 86 98 96 93 96 98 95 90 86 86 86 88 95 100 101 102 102 101 101 100 99 100 101 102 103 101 97 92 84 75 70 65 60 57 55 52 50 47 45 44 43 42 42 43 44 44 44 44 45 46 48 50 51 52 53 54 54 53 52 52 51 50 50 49 48 50 55 62 69 74 76 74 69 65 62 55 47 42 40 42 48 53 57 61 64
62 70 81 85 86 89 93 96 94 88 85 87 89 91 94 98 99 99 99 98 96 96 100 100 101 102 100 96 91 86 79 73 69 64 59 54 50 47 45 43 41 40 38 37 37 37 37 37 38 39 40 43 47 50 51 52 53 54 54 53 52 51 50 49 48 46 45 44 44 45 48 49 48 46 43 38 34 33 37 42 44 43 41 43 46 51
53 54 58 62 65 68 70 75 77 78 81 84 85 84 86 90 93 95 96 94 88 84 86 89 92 93 91 85 82 79 75 71 67 64 59 55 50 47 47 46 45 44 43 42 40 39 39 38 37 37 38 40 43 49 53 55 55 56 57 57 56 55 54 53 51 50 50 48 47 50 55 57 56 58 57 51 45 42 43 45 47 48 51 54 53 55
48 52 50 49 49 47 49 51 52 55 60 62 61 60 60 64 69 76 85 93 92 86 81 80 80 82 81 79 77 75 73 71 68 66 63 61 59 59 60 59 59 59 58 57 56 55 53 51 49 48 47 46 47 51 55 58 59 59 60 60 59 58 57 56 55 53 52 52 50 51 55 54 54 58 62 60 56 51 48 49 50 51 55 58 57 61
44 49 49 49 47 43 45 46 41 37 35 32 30 28 27 31 37 45 57 70 77 77 75 73 73 73 73 74 75 73 72 71 70 69 68 65 64 65 65 65 65 65 64 65 68 70 69 68 67 65 62 59 59 59 61 62 64 65 67 68 68 68 67 66 66 65 64 65 65 65 67 66 65 67 69 69 69 67 66 67 70 73 77 74 71 74
52 51 53 57 56 50 43 35 28 25 23 19 16 14 15 18 24 27 29 32 34 36 38 40 43 43 42 42 42 42 42 43 42 42 41 41 41 41 42 43 44 46 46 48 52 54 54 55 55 54 54 54 55 56 58 61 63 65 67 69 70 70 71 72 75 78 79 82 85 89 90 89 88 87 86 85 86 88 90 91 93 96 98 92 89 94
42 46 52 53 51 50 45 36 30 27 21 16 15 17 18 18 19 20 18 15 15 15 15 16 18 18 17 16 15 15 16 17 18 18 18 18 18 18 19 19 20 25 28 28 29 32 36 37 36 35 35 35 34 35 36 39 41 45 49 54 60 66 71 75 79 84 89 93 97 99 101 100 99 98 97 96 97 98 99 100 100 101 102 98 96 100
31 35 36 34 34 38 40 38 34 29 22 20 22 26 26 22 18 17 16 15 15 15 15 15 14 14 14 14 14 14 15 15 15 16 17 17 15 14 14 14 16 23 29 28 29 38 49 55 57 58 58 59 56 53 50 48 47 46 45 45 48 53 61 68 75 84 92 97 97 96 96 96 97 98 100 100 101 101 101 101 100 101 102 102 98 97
Wind_Speed
22 22 22 21 21 19 19 18 15 15 19 21 21 14 16 14 12 14 16 18 32 32 27 26 29 25 24 26 23 24 33 38 35 21 18 29 27 22 25 25 26 25 24 24 23 25 29 31 33 32 29 26 26 26 23 22 23 23 23 21 20 21 22 21 19 18 14 12 13 13 14 17 17 16 16 16 18 19 20 21 21 20 17 14 12 9
22 22 21 19 19 19 19 17 17 22 26 25 23 17 14 14 13 13 16 20 32 32 27 24 26 28 26 26 25 23 27 33 35 26 24 32 31 26 27 27 27 25 24 25 26 29 32 33 32 28 24 23 25 25 24 24 25 25 24 22 21 22 23 23 20 17 15 14 14 15 15 16 17 16 17 18 18 18 18 20 20 18 16 14 12 11
21 20 19 19 19 20 21 20 21 23 21 21 24 22 16 14 15 14 17 26 34 34 30 26 27 26 25 29 28 24 26 32 28 24 27 32 32 29 27 28 28 26 27 30 32 32 33 32 28 22 21 23 26 27 25 25 25 26 24 22 21 22 23 23 20 18 17 16 15 15 14 16 17 17 18 19 18 17 17 19 19 17 16 15 14 13
19 18 19 19 19 22 23 21 19 16 15 19 23 22 17 15 15 15 19 27 32 34 31 27 29 23 20 28 26 19 24 31 23 17 23 30 32 31 29 30 30 29 32 36 36 35 32 27 21 20 22 25 27 27 25 24 25 25 23 22 21 21 24 24 21 18 18 17 15 14 15 17 19 18 18 18 17 16 18 19 19 18 17 15 15 15
19 17 19 20 20 24 22 18 17 15 15 19 22 22 18 17 12 14 20 23 25 25 22 20 24 21 17 24 23 22 28 29 23 19 22 28 31 32 30 31 33 35 37 38 36 32 26 20 20 24 24 25 26 25 23 23 24 25 23 22 21 21 23 24 21 18 18 18 16 16 16 18 19 19 19 18 17 17 18 18 19 18 17 16 16 15
18 17 20 21 23 24 19 16 18 17 16 18 19 19 19 19 16 15 19 25 27 24 19 18 24 24 21 21 20 25 33 32 28 26 26 29 32 34 33 34 37 38 36 33 28 23 21 22 24 24 23 23 23 22 20 20 21 22 22 20 19 20 21 20 18 18 18 18 19 18 17 18 20 20 20 18 16 16 17 17 18 18 18 17 17 17
18 20 24 23 23 22 17 17 18 17 16 17 17 16 20 23 22 23 20 24 26 24 19 18 22 22 20 20 19 23 31 32 30 29 29 30 33 35 35 37 37 31 27 25 22 21 24 26 24 21 22 21 19 18 17 16 16 18 19 18 18 20 19 18 18 18 18 19 19 18 17 19 21 22 22 18 14 14 16 17 17 18 19 19 18 18
20 23 26 24 22 19 18 19 17 17 17 16 17 17 21 24 23 24 23 19 18 20 19 18 20 21 19 21 21 21 28 29 27 29 32 31 31 34 34 34 31 25 20 19 22 24 25 26 22 19 20 20 19 18 15 13 14 15 16 16 17 18 18 20 20 19 19 19 19 18 18 18 20 23 22 16 14 15 16 17 18 18 18 19 19 18
21 25 26 22 19 18 19 19 17 18 18 17 20 20 20 24 24 22 22 18 17 19 20 18 18 21 22 23 21 20 27 27 25 30 32 31 31 31 30 28 26 24 19 18 22 25 26 24 20 18 19 19 19 19 16 13 12 13 15 15 15 15 16 18 18 16 16 17 18 17 16 16 18 23 24 19 18 19 18 18 18 19 18 18 19 19
21 25 26 22 19 18 18 18 18 19 17 18 22 19 18 23 23 22 20 17 18 22 22 19 18 18 19 23 22 22 25 24 24 27 26 28 30 27 25 24 23 23 20 19 23 26 25 21 18 18 19 18 17 17 17 15 13 12 13 13 12 13 13 13 14 14 15 15 16 16 16 16 17 22 25 25 23 21 20 20 20 20 19 18 18 19
23 25 26 24 21 18 17 18 18 17 17 20 21 18 17 20 21 22 20 18 21 25 22 18 16 15 16 21 24 25 25 23 24 23 19 23 28 25 23 21 20 21 21 21 25 26 23 18 18 18 18 18 17 15 15 14 14 13 13 13 13 13 12 11 13 16 17 17 16 16 18 18 18 21 25 26 23 21 20 21 22 21 19 18 18 19
26 25 24 22 19 19 21 22 21 18 20 23 20 16 16 17 19 20 20 20 23 25 19 15 16 17 18 23 27 26 25 24 25 20 14 20 25 24 21 18 19 21 21 21 24 25 23 19 18 18 18 18 17 16 14 13 14 15 15 15 15 15 15 13 13 14 15 15 17 19 20 19 18 20 23 23 20 19 20 22 22 21 19 18 18 18
26 25 23 19 18 21 23 23 22 19 21 22 19 17 17 16 17 19 19 21 24 22 16 14 17 18 19 25 28 27 25 26 24 16 13 20 23 21 19 18 19 21 21 21 21 22 23 21 20 19 19 17 17 16 15 13 14 15 16 17 17 17 16 15 16 16 15 16 17 20 21 20 19 18 20 23 22 22 23 22 21 20 19 19 18 18
26 26 25 21 19 22 21 20 21 18 19 21 18 18 19 18 19 20 20 19 20 19 17 18 20 21 22 27 30 29 27 26 22 19 18 22 25 23 21 20 20 21 22 22 21 21 21 20 20 20 20 19 18 17 16 16 16 16 17 18 18 17 16 16 17 18 19 19 19 19 21 21 20 18 20 24 26 27 24 21 20 20 20 19 18 18
28 27 28 25 22 23 20 19 19 16 17 20 18 18 19 19 22 22 20 19 19 18 17 18 21 23 25 26 27 27 26 25 24 23 22 24 27 27 23 21 21 22 22 21 22 22 19 17 19 21 21 20 18 17 18 18 18 18 18 18 18 18 17 17 17 17 17 18 17 18 19 19 17 18 21 24 26 26 24 21 20 20 21 20 18 18
28 28 27 25 24 25 22 20 21 19 17 19 20 21 20 20 23 23 21 21 20 18 17 19 21 23 25 26 24 23 24 26 28 27 25 25 26 26 24 22 21 21 21 21 21 19 16 15 17 20 21 20 18 18 19 19 19 19 19 18 19 19 19 17 18 18 18 17 17 18 19 19 18 19 21 23 24 24 23 22 21 21 21 20 19 19
27 24 23 23 24 26 25 22 23 24 21 21 22 21 18 20 22 22 24 24 22 19 20 23 23 22 24 26 27 26 25 27 29 29 28 28 27 26 25 24 22 21 22 23 22 20 18 16 17 20 22 22 22 21 21 20 19 19 18 18 19 21 21 19 18 18 18 18 18 18 20 23 24 24 23 24 24 23 23 23 22 22 22 21 20 20
28 23 22 22 19 21 25 25 24 26 25 24 24 22 21 24 24 21 21 23 23 22 21 23 22 20 20 24 28 27 25 27 30 29 28 29 30 28 26 25 26 25 24 24 26 25 22 19 18 21 23 23 24 24 23 22 20 19 19 19 20 21 22 21 20 18 18 20 20 20 20 23 26 26 25 25 26 25 25 24 23 23 23 22 21 21
30 28 28 24 17 16 23 26 26 27 28 25 25 26 27 29 27 21 19 20 20 18 19 21 20 18 19 23 27 27 25 28 30 28 27 29 29 29 29 27 27 25 23 22 22 21 20 20 21 22 23 24 24 25 25 23 22 21 21 21 20 20 20 20 20 19 19 21 22 22 22 23 25 27 27 27 27 27 26 25 25 25 24 23 22 23
31 30 29 27 23 18 21 25 27 28 28 26 26 28 27 28 28 24 22 22 19 15 16 19 18 19 22 24 26 27 27 26 25 24 25 25 26 27 27 27 27 27 26 26 25 23 22 22 23 23 24 23 24 24 25 24 24 23 23 20 18 18 19 19 19 19 19 19 21 23 24 25 26 27 28 29 29 28 26 26 26 26 26 25 24 24
30 30 30 31 29 26 23 24 25 26 26 25 27 28 26 25 26 26 24 24 23 20 19 18 19 23 26 27 28 30 30 28 26 25 24 24 25 25 25 25 26 26 26 27 27 26 25 25 24 24 23 22 22 23 23 24 25 25 23 20 18 17 17 17 17 17 19 20 21 22 22 24 26 28 29 30 30 28 26 27 28 27 27 27 25 26
30 32 30 30 31 30 27 21 21 24 24 22 23 25 25 22 20 23 25 26 25 26 24 22 23 25 26 28 31 31 31 30 29 28 26 25 25 24 23 23 23 23 24 25 26 27 26 25 24 23 22 21 21 21 21 22 24 25 24 23 21 18 16 17 17 16 18 20 21 21 21 22 24 26 30 32 31 28 27 27 28 28 27 27 27 26
31 32 30 29 30 31 30 26 24 24 23 21 21 23 25 24 22 23 25 25 24 25 26 26 26 27 27 29 31 31 29 29 28 28 27 26 25 24 22 21 21 21 22 24 25 26 26 25 24 23 22 21 20 20 20 20 21 23 24 23 21 19 18 18 18 17 18 19 21 22 23 23 22 23 28 34 33 29 27 28 30 29 28 28 27 27
29 29 31 30 30 30 31 31 29 26 26 28 27 25 26 28 28 27 26 26 26 23 23 25 27 29 29 28 29 30 30 30 30 29 28 26 26 25 23 23 23 23 23 24 25 26 25 25 23 22 20 19 19 19 19 19 19 19 18 17 17 16 15 15 15 15 15 16 17 19 21 22 22 23 26 32 32 29 29 30 32 31 29 29 29 28
28 28 30 31 32 32 32 33 32 30 31 32 31 29 28 27 26 28 31 31 30 26 21 22 26 29 31 30 28 29 29 30 31 29 27 25 25 24 23 23 23 22 22 22 22 22 22 21 20 19 19 19 18 17 17 17 15 14 14 14 13 11 11 11 12 12 12 13 13 14 16 19 21 24 25 28 27 28 32 33 34 33 31 31 31 30
28 27 28 29 32 33 33 34 34 33 33 33 32 31 30 28 25 26 31 33 34 31 27 27 27 28 31 31 31 31 28 28 29 28 25 24 23 22 21 20 20 20 20 19 19 20 20 20 20 20 19 18 17 16 15 14 12 12 13 13 11 10 10 10 11 12 12 12 11 11 12 14 17 19 21 23 24 28 33 34 33 32 32 32 32 31
30 30 29 28 29 29 31 32 31 31 32 31 32 32 30 30 30 30 31 33 33 32 31 32 32 31 31 30 29 30 28 26 27 26 25 24 22 20 19 19 20 20 19 18 20 22 23 22 20 20 18 17 16 15 14 13 13 13 13 12 11 12 13 14 15 15 14 13 12 11 11 12 13 14 18 21 22 25 29 31 31 31 31 31 31 30
29 31 30 29 29 30 32 31 28 29 31 30 31 32 31 34 36 36 34 34 34 32 30 30 30 31 32 30 28 28 28 27 28 27 26 25 23 22 21 21 22 22 20 20 22 24 25 23 21 20 18 17 17 15 14 13 13 13 12 12 12 13 16 18 19 18 15 12 10 8 8 10 12 13 18 22 23 23 25 27 29 30 30 30 30 29
25 26 27 28 29 30 32 32 30 30 32 32 32 32 32 36 39 39 38 37 37 35 33 32 31 30 29 30 30 29 29 29 28 27 27 26 24 22 22 22 22 22 23 23 22 22 21 19 19 19 18 17 17 15 15 14 14 13 12 12 12 14 16 17 17 16 12 9 8 7 8 10 12 14 17 19 21 23 24 24 25 26 25 26 28 28
24 24 25 26 26 27 28 29 29 29 31 32 33 33 32 35 37 37 37 38 37 37 36 36 37 34 32 31 31 31 31 29 26 25 23 23 23 20 17 19 19 18 19 20 22 23 20 18 18 18 18 18 17 16 16 15 15 14 14 13 14 15 15 15 16 16 13 11 10 9 11 13 14 15 15 16 18 22 24 24 23 22 21 22 24 25
25 25 26 25 25 26 27 27 27 28 29 30 32 34 34 36 37 37 37 36 35 37 37 37 37 36 35 34 33 32 32 29 27 26 24 22 23 21 19 20 20 19 19 19 20 20 20 19 19 19 19 19 18 18 18 17 16 17 16 16 16 17 17 16 18 18 17 17 16 14 13 14 14 15 15 16 18 20 22 22 22 22 22 22 22 23
25 27 27 25 24 26 27 27 27 26 27 28 30 32 34 37 40 41 41 40 39 39 39 38 37 36 35 35 36 36 35 32 30 29 29 28 27 25 24 24 24 24 25 24 22 22 21 20 20 20 20 21 22 22 21 20 20 19 19 19 20 20 20 20 21 21 21 21 20 17 16 16 17 18 18 19 21 22 24 24 24 24 25 24 24 24
24 25 26 25 24 26 27 28 26 25 25 26 28 30 32 35 40 43 44 44 43 42 41 40 39 37 36 35 36 36 36 34 32 29 30 32 30 28 27 27 28 29 29 28 29 29 26 23 22 22 24 24 24 25 26 26 26 24 23 24 24 24 24 24 24 24 24 24 22 19 19 19 19 20 21 21 22 23 24 24 25 26 27 26 27 26
26 25 25 24 23 24 27 27 26 25 25 24 25 27 30 32 36 40 44 45 44 42 40 40 40 39 38 37 37 37 36 37 36 33 31 32 31 30 28 27 28 30 29 29 31 32 30 28 27 27 28 28 29 30 30 31 30 29 28 28 27 27 28 29 29 28 27 26 25 22 22 22 21 22 23 24 24 25 26 27 28 29 30 30 29 29
27 25 26 25 24 25 26 26 25 26 26 24 24 24 25 27 29 33 37 41 43 43 42 43 44 44 42 40 40 40 38 38 39 39 36 35 34 33 31 30 30 30 28 26 26 27 28 30 32 32 32 32 32 32 32 32 31 31 31 31 30 31 32 32 32 32 32 32 30 29 30 30 29 28 29 30 31 32 33 33 32 33 34 34 34 33
29 28 28 26 26 26 25 25 25 26 26 26 26 26 24 23 24 25 28 32 36 40 42 43 45 46 46 45 44 44 43 42 41 41 41 40 39 38 37 36 35 33 29 26 24 22 23 25 28 31 33 33 33 32 32 31 31 30 31 31 32 32 33 34 34 35 36 37 37 36 37 38 37 35 35 36 37 38 38 37 36 36 37 37 38 37
31 32 30 27 27 26 24 24 24 24 25 26 27 27 26 24 23 22 22 23 26 29 33 36 38 41 43 45 45 46 47 46 44 43 42 41 41 41 40 40 39 38 38 38 36 33 30 27 25 26 28 29 31 31 31 30 31 31 33 34 34 34 35 36 37 36 37 38 39 39 39 39 40 40 39 40 41 41 41 40 40 39 39 40 41 40
32 33 32 30 30 28 26 26 24 22 24 24 23 23 24 26 26 26 25 25 24 23 24 25 27 30 34 37 40 41 43 44 45 45 43 42 42 42 42 42 42 42 43 43 42 41 39 37 35 33 31 30 30 31 31 32 33 34 36 37 37 37 37 38 37 36 35 36 37 37 36 36 37 38 38 40 41 41 42 42 42 42 42 42 43 43
31 32 32 31 30 28 26 27 26 24 23 23 22 24 26 26 27 28 28 29 27 25 23 23 23 25 27 29 31 32 33 36 39 39 38 38 38 39 41 41 42 43 44 43 42 42 41 40 41 40 38 36 34 34 35 35 36 35 35 37 38 38 38 37 35 33 32 33 33 33 33 34 35 37 38 38 38 39 41 42 43 43 44 44 44 44
29 30 32 31 30 29 28 28 29 29 27 25 23 24 24 23 25 28 29 28 28 27 26 26 26 26 25 25 25 25 27 30 32 31 31 32 33 35 38 39 40 41 42 43 43 43 42 41 40 40 40 38 37 37 37 38 37 36 35 36 37 38 38 37 35 33 32 33 33 33 34 34 34 35 36 37 37 38 40 41 42 43 43 43 43 43
27 28 29 29 30 30 30 30 30 31 31 30 27 25 23 20 22 27 28 28 28 28 27 27 28 27 27 27 26 27 29 31 32 32 32 32 33 35 36 38 38 40 41 43 43 44 44 43 43 42 42 41 40 40 40 41 41 40 40 39 39 39 39 38 37 37 36 37 38 38 37 37 35 35 37 38 38 37 38 39 40 41 42 42 42 41
25 26 26 27 29 30 30 31 31 32 32 32 32 30 28 26 27 28 28 28 29 29 28 28 29 29 29 29 30 31 32 34 35 37 37 37 37 38 39 40 40 42 43 44 44 45 45 45 46 46 46 46 46 45 46 46 47 47 47 47 46 45 44 43 41 40 39 40 41 40 39 38 37 36 38 39 40 40 41 42 42 43 42 42 42 41
24 23 24 24 25 27 29 31 34 34 33 33 33 32 31 31 31 32 33 33 33 31 28 27 28 29 30 31 33 35 35 36 37 38 39 40 40 40 42 43 44 45 46 47 48 48 49 49 50 50 50 50 50 50 50 51 51 52 52 52 51 51 52 51 51 50 48 47 47 46 45 44 43 43 45 47 50 51 51 49 47 47 46 45 44 44
25 25 25 24 24 25 26 28 31 32 31 31 33 34 33 32 30 30 32 34 33 32 30 29 29 31 33 34 36 37 37 38 39 40 41 42 42 42 44 45 46 47 48 49 50 51 52 52 53 52 52 52 52 52 52 53 53 54 55 55 55 55 56 56 56 56 56 56 56 56 56 56 55 55 56 58 59 58 55 51 49 50 50 50 50 50
29 29 29 29 29 29 29 29 30 31 30 31 32 34 35 34 33 33 33 34 35 35 35 35 35 36 37 38 38 39 39 40 41 42 43 43 44 45 46 47 47 48 49 50 50 52 53 53 54 54 54 53 52 52 53 53 53 54 55 56 56 57 57 58 57 57 57 57 57 57 56 56 56 56 57 59 58 57 55 53 52 51 51 52 53 53
28 30 31 32 33 34 34 34 33 33 33 33 34 35 36 36 36 37 37 38 38 39 39 40 41 41 42 43 43 43 43 44 44 45 46 47 48 49 49 50 50 50 50 50 51 52 52 53 54 54 54 54 54 54 54 54 55 55 55 56 56 57 57 58 58 58 58 58 57 55 53 52 52 52 52 53 54 54 54 54 53 53 52 51 52 52
26 28 30 32 34 35 36 36 36 37 37 37 38 38 38 39 39 39 40 40 41 41 42 43 44 45 45 46 46 47 47 48 48 48 49 50 50 51 51 51 50 50 50 50 50 52 52 53 54 54 55 55 56 56 56 57 57 57 57 58 58 58 58 58 59 59 59 59 59 58 57 56 56 55 54 54 55 56 56 56 56 56 55 53 53 53
24 27 29 29 30 30 31 33 35 37 39 41 42 42 42 42 42 42 43 43 43 43 43 44 45 46 46 46 46 47 47 47 48 48 49 49 49 50 50 50 50 50 50 50 50 51 52 53 54 54 55 55 56 57 57 58 59 59 60 60 60 61 61 61 61 61 60 61 61 60 61 61 60 59 59 58 58 58 58 58 57 56 56 54 53 53
23 26 25 24 23 25 27 30 32 34 36 37 38 39 40 41 42 43 44 45 45 46 46 46 47 47 48 48 48 48 48 48 48 47 48 48 48 48 49 50 50 51 51 51 51 51 52 53 54 55 55 56 56 57 58 58 58 59 60 60 61 61 62 62 62 61 61 61 60 59 58 58 58 58 58 58 57 57 56 56 55 53 53 53 51 50
22 22 21 22 22 22 24 27 29 31 33 33 33 33 33 35 36 38 39 40 42 43 44 44 45 46 47 48 48 48 48 47 47 47 46 46 46 46 47 48 48 49 49 50 50 50 50 51 52 52 52 53 54 55 57 58 58 59 60 60 61 61 61 61 60 60 59 59 57 56 55 56 56 56 56 56 56 55 55 54 53 52 52 52 50 49
22 21 21 22 22 21 22 25 27 28 28 28 28 27 28 29 30 31 32 32 33 34 35 36 37 38 39 40 41 41 42 42 42 42 42 42 43 43 44 44 45 46 47 48 48 48 49 49 50 50 50 51 52 53 53 54 55 56 57 58 58 59 59 60 59 59 58 58 58 57 58 59 60 60 59 58 57 56 55 54 54 53 53 53 52 52
Wind_Direction
235 237 237 236 238 238 236 234 223 194 184 202 207 223 253 230 220 213 180 225 251 253 257 243 235 229 211 214 214 219 227 230 241 242 233 250 256 253 251 249 250 251 250 250 250 249 245 244 247 250 252 259 268 275 280 281 279 279 278 275 272 265 256 251 245 238 244 256 259 259 246 234 234 238 242 243 247 256 267 275 279 280 280 277 274 270
235 236 237 237 237 235 234 226 215 212 205 202 196 191 225 225 215 208 188 225 245 241 247 247 238 230 223 225 219 220 238 242 243 240 241 255 261 256 253 253 252 251 250 249 247 245 245 246 248 252 258 265 270 273 277 277 276 275 275 274 270 263 259 254 244 236 244 257 261 257 242 233 234 235 238 242 248 257 266 271 271 271 272 273 274 274
237 238 237 236 235 233 232 223 218 229 225 207 198 190 196 210 211 210 207 226 241 241 238 243 251 241 225 230 226 216 237 254 252 240 241 252 257 255 255 255 253 250 247 246 242 239 242 246 250 256 263 265 265 268 272 274 274 274 275 277 272 265 262 252 238 234 243 253 258 253 239 227 228 231 236 242 247 254 261 264 264 264 267 270 272 272
235 236 236 234 235 235 234 232 230 235 232 211 208 213 201 189 202 214 218 229 241 245 242 242 248 245 228 230 229 211 227 245 248 240 241 247 252 254 251 250 250 246 242 243 243 241 242 246 250 255 258 259 262 267 272 275 276 276 277 276 272 269 261 245 233 238 244 248 252 250 239 226 225 228 234 242 246 251 257 260 262 263 265 268 270 272
233 231 236 233 233 238 235 235 236 228 222 211 213 226 204 171 191 220 222 230 238 243 246 239 229 224 228 230 221 215 227 238 244 245 248 249 251 252 248 247 245 242 241 244 247 245 244 246 245 247 252 257 265 271 277 280 281 281 281 278 274 272 258 239 236 247 248 250 251 247 242 233 229 231 232 235 241 249 254 258 264 267 270 273 275 276
229 225 234 232 231 238 235 230 232 226 222 216 214 222 205 184 190 206 229 241 239 245 254 237 220 219 231 232 219 226 236 243 250 252 253 253 252 251 248 245 243 242 246 250 251 244 240 244 244 247 253 261 271 278 277 280 283 282 281 279 275 272 259 242 247 258 256 255 253 250 249 241 234 232 230 230 240 252 258 264 271 274 277 279 279 280
225 226 234 233 234 238 236 231 230 225 223 219 214 215 212 212 201 188 213 245 244 243 246 231 223 225 235 234 221 231 242 243 245 249 249 248 250 252 250 250 250 249 251 254 252 244 239 243 247 251 255 260 271 279 277 277 277 275 276 276 276 275 264 253 261 267 263 262 256 251 253 246 236 230 228 233 247 260 264 268 273 276 279 281 281 281
223 230 237 235 237 238 233 232 229 224 223 216 211 208 210 222 222 200 203 235 246 239 239 236 229 224 230 238 233 239 249 247 242 244 246 246 249 253 252 254 254 248 246 247 244 241 240 244 249 254 256 257 262 269 278 281 276 271 270 268 272 277 269 259 263 264 261 263 256 249 252 252 240 229 228 240 263 272 270 271 274 277 280 281 281 281
227 233 241 239 237 236 231 230 228 223 219 214 212 210 209 216 225 219 213 228 241 236 235 232 228 223 224 236 243 246 250 249 245 244 246 247 247 248 249 250 247 243 243 238 231 233 238 243 249 252 256 258 260 265 273 283 288 284 274 263 263 279 278 264 259 256 255 258 254 247 251 255 247 238 234 247 273 281 276 274 275 277 279 280 280 279
231 233 238 239 234 232 230 227 225 223 217 217 219 217 218 217 219 225 224 227 237 239 235 225 225 225 224 234 239 239 247 250 247 244 245 251 250 245 245 246 245 246 246 233 225 231 238 244 249 252 256 259 262 267 270 278 290 292 286 276 271 288 290 263 250 252 255 258 254 250 252 254 256 252 246 252 270 280 278 275 273 271 273 275 276 274
231 233 234 234 231 229 227 221 219 217 212 218 223 218 219 220 220 227 228 227 236 240 236 227 228 224 220 235 237 236 246 251 245 241 242 254 259 255 252 251 250 254 254 241 230 232 238 245 253 257 258 258 260 264 271 280 286 286 286 286 288 300 301 272 256 261 266 266 262 260 262 263 264 263 255 253 262 271 274 275 272 269 268 269 271 269
234 238 237 236 232 228 225 221 217 214 214 219 221 212 210 217 222 226 227 228 234 240 237 228 235 233 220 231 240 237 237 241 247 250 242 247 257 259 254 252 251 255 257 245 232 234 240 246 255 259 258 258 258 261 269 280 286 285 282 281 286 294 297 287 273 272 275 272 267 266 269 267 268 266 253 244 253 269 275 274 270 266 263 264 267 264
239 243 243 237 229 230 231 228 227 222 220 221 217 207 205 214 225 226 225 230 235 239 238 225 230 238 227 228 240 241 234 240 252 252 237 239 248 249 243 241 244 246 246 239 234 238 240 241 250 257 256 258 260 262 266 271 277 282 282 282 283 287 289 287 279 276 276 273 269 268 267 264 266 265 248 239 254 276 280 274 267 264 262 261 264 260
240 244 244 238 231 234 235 231 231 229 225 223 216 211 209 212 224 227 224 233 240 239 237 232 227 230 230 231 239 243 242 246 247 242 241 244 243 240 235 233 234 235 239 240 238 237 237 238 246 254 257 258 260 264 266 267 270 273 277 281 281 283 284 282 279 276 273 273 270 264 259 260 265 262 252 250 262 275 276 268 261 261 261 262 263 257
237 241 242 239 234 235 234 229 227 224 228 228 218 215 216 218 226 229 223 226 235 236 234 235 232 228 230 235 242 245 244 244 244 247 250 244 241 241 238 232 228 228 235 243 239 235 239 244 250 257 262 263 265 268 268 268 270 269 272 277 279 279 278 277 279 276 271 272 272 263 255 256 263 266 263 261 265 270 269 261 258 259 261 262 261 253
235 239 242 243 239 235 231 228 225 220 222 226 221 216 217 226 233 234 228 224 226 228 223 225 233 232 230 237 246 247 244 245 250 254 253 245 246 252 251 243 237 233 236 243 241 239 246 253 258 264 270 273 274 272 270 269 270 270 270 275 279 278 276 274 274 273 270 271 273 267 255 251 261 272 273 269 268 269 265 259 258 259 260 261 258 250
234 236 240 241 239 235 228 221 222 223 219 220 222 217 218 234 240 236 233 231 231 231 229 229 232 234 236 241 246 246 242 244 249 252 254 254 256 259 258 254 251 248 247 246 242 245 257 264 264 267 271 275 275 274 273 273 272 272 273 275 276 275 275 275 274 274 275 277 279 271 257 252 261 272 275 271 269 267 262 259 259 258 258 259 257 250
231 229 227 226 231 238 231 219 219 224 222 221 222 217 217 228 234 235 235 234 232 231 232 234 236 241 250 253 251 250 246 244 247 250 253 256 256 252 249 248 252 254 254 246 239 246 261 268 266 268 271 273 276 277 278 278 276 275 275 276 274 274 276 276 275 275 278 281 282 277 267 262 263 269 272 271 267 263 259 257 258 258 256 255 254 251
230 229 228 221 217 236 236 222 217 221 223 225 225 220 221 225 226 228 234 235 235 231 229 235 242 252 259 260 259 260 253 246 249 254 255 256 257 254 250 250 252 254 254 251 250 257 268 270 269 271 272 274 278 279 281 283 282 280 279 274 273 276 277 277 277 277 279 283 284 280 275 273 270 268 268 268 264 259 255 253 256 258 255 252 250 250
230 228 229 220 204 208 228 226 221 220 220 224 228 224 222 224 225 226 229 232 236 236 232 231 237 244 248 253 259 263 258 251 254 261 261 263 267 267 266 264 264 263 262 264 271 276 274 271 270 270 271 273 276 278 282 285 285 285 282 274 271 275 275 276 278 277 279 286 289 284 276 273 273 268 265 263 259 254 251 249 251 254 253 251 250 251
235 226 223 222 211 204 214 225 228 224 219 222 229 229 225 226 230 232 233 234 234 235 234 230 230 234 238 246 253 259 263 263 261 262 264 270 274 273 271 268 267 267 265 266 271 273 272 271 270 270 271 272 273 275 280 282 284 286 284 280 280 276 272 273 277 280 281 282 287 289 282 275 274 270 265 260 252 249 250 247 247 251 252 250 251 253
228 225 219 222 222 218 214 216 227 228 222 223 230 233 232 230 233 235 237 239 239 239 239 235 232 232 234 242 249 255 261 263 261 262 263 266 269 270 268 262 259 259 260 261 263 264 266 268 269 270 271 271 272 273 275 277 280 282 283 285 287 282 278 277 280 284 281 278 280 285 289 288 283 277 269 260 251 247 250 248 246 250 252 252 252 253
222 226 224 222 224 224 216 208 215 219 214 218 229 234 233 230 231 236 241 243 241 240 241 239 240 241 238 240 247 251 255 258 258 260 261 262 264 266 265 260 258 258 257 257 257 257 259 261 264 266 268 269 269 270 272 272 275 277 280 283 284 283 285 284 284 284 280 277 276 277 285 287 287 285 270 255 248 246 249 251 248 249 253 253 252 252
226 230 230 228 227 226 220 215 216 214 208 209 216 225 229 229 229 232 237 241 238 235 234 234 238 241 237 234 240 246 249 254 256 259 263 264 261 261 261 260 261 261 257 254 252 252 253 254 257 260 261 263 263 264 267 268 270 272 274 279 280 281 285 284 283 282 278 276 273 273 278 275 279 289 270 249 245 246 250 255 250 247 252 252 250 250
229 231 231 230 230 229 226 224 224 222 219 214 211 217 226 229 230 230 232 236 237 234 230 227 229 234 236 237 240 243 245 249 252 257 261 260 256 257 259 259 258 256 251 247 245 246 247 247 249 252 254 257 259 260 262 263 265 267 268 275 278 278 280 278 280 282 280 277 270 268 271 266 274 284 262 239 241 249 253 255 249 246 250 251 250 251
227 229 229 228 231 233 231 231 229 228 229 225 216 214 220 224 229 233 233 234 236 235 233 233 233 237 243 247 247 246 247 249 251 254 257 256 256 257 258 255 251 246 243 243 243 244 245 244 245 247 250 253 254 255 261 261 262 267 272 274 276 276 273 268 272 276 272 268 262 257 259 262 273 276 251 236 246 253 252 250 245 245 250 250 250 252
226 228 229 228 231 235 236 235 232 230 231 229 221 216 216 220 226 231 233 234 235 233 232 235 237 238 241 246 248 248 250 254 256 256 257 259 258 255 253 248 244 241 240 242 249 252 248 244 244 245 244 245 246 249 255 258 262 268 270 270 272 276 275 272 270 265 256 251 249 247 247 251 262 266 253 251 259 256 249 246 245 248 251 251 250 250
228 229 233 234 233 236 238 239 238 235 233 232 230 224 219 221 226 229 230 233 234 233 231 233 237 237 237 241 245 248 251 254 256 254 253 254 253 249 248 245 242 241 243 249 256 253 243 235 236 239 237 238 244 249 250 254 259 258 257 263 270 274 277 277 270 260 251 246 246 249 248 245 251 256 254 257 261 255 244 240 243 248 249 248 249 251
233 234 238 238 237 239 241 243 244 243 239 237 236 233 227 227 230 230 229 231 233 235 235 237 240 242 242 244 247 251 255 257 258 256 250 247 246 242 241 241 237 236 240 244 244 239 232 229 232 236 238 241 247 252 254 255 253 249 253 262 268 275 283 280 269 264 260 253 254 265 263 255 256 258 255 255 255 252 244 238 240 246 247 251 255 257
237 240 241 240 240 242 244 246 246 246 245 241 238 236 233 235 239 238 237 237 238 239 240 240 243 245 246 247 249 252 255 256 253 247 239 235 236 234 235 240 237 235 240 240 236 238 243 245 245 246 248 250 252 255 259 260 258 261 267 268 267 274 281 276 267 269 267 258 261 271 268 264 264 265 261 253 247 248 248 245 245 251 255 258 260 258
237 239 242 242 243 245 247 248 249 249 250 247 243 240 239 241 244 245 246 245 244 243 241 239 242 245 245 244 247 251 254 252 246 242 240 239 239 237 242 248 245 246 253 250 245 251 260 263 263 263 263 262 262 262 263 263 265 269 270 268 268 272 276 271 268 270 269 268 271 272 267 262 261 262 262 256 250 251 253 253 255 260 263 266 267 263
236 237 242 243 245 248 249 250 252 253 253 252 250 247 245 244 243 244 246 247 248 247 243 241 243 246 246 244 244 247 250 249 245 246 247 247 246 248 251 253 252 256 262 262 261 266 273 275 274 272 271 271 270 270 269 267 268 269 266 266 269 272 273 272 271 272 275 279 280 273 265 264 263 261 257 252 253 256 260 261 262 265 267 269 272 270
241 240 243 244 245 249 250 249 252 254 254 253 252 250 248 246 244 244 245 247 248 246 243 240 241 243 245 245 244 245 247 247 246 245 242 242 246 252 255 257 260 262 264 266 268 269 271 272 270 266 265 264 263 265 267 269 270 270 269 270 272 272 273 274 273 274 275 278 279 274 267 265 262 259 254 250 250 254 258 260 261 265 268 267 268 269
246 244 246 247 246 248 248 248 250 252 251 250 248 246 245 245 245 245 245 247 249 248 243 241 242 243 244 244 243 244 244 244 244 243 240 239 241 246 251 256 262 266 267 268 269 269 268 267 267 267 264 261 260 261 263 266 269 270 270 271 270 269 270 272 272 272 272 271 270 267 264 261 258 257 258 256 254 256 259 262 265 268 268 266 264 265
248 247 247 247 249 251 250 249 250 251 251 249 247 247 245 242 243 245 245 246 248 249 248 246 246 246 247 247 247 246 245 244 244 243 243 243 244 246 250 252 255 264 273 273 268 266 263 259 260 262 262 261 262 262 264 267 269 270 271 271 269 268 268 268 269 269 270 270 267 262 261 262 261 262 263 262 262 263 265 266 266 266 265 265 265 265
249 250 250 249 251 252 250 252 253 252 252 251 252 255 256 251 247 246 246 245 245 247 248 246 245 246 247 249 249 248 248 247 246 244 245 247 249 251 252 252 251 255 260 260 257 260 263 262 260 258 257 258 260 262 265 268 270 271 271 270 270 270 270 271 272 269 267 267 266 265 264 265 265 266 266 265 265 266 266 267 266 265 264 266 267 268
246 249 250 248 249 248 247 252 254 253 253 254 255 257 259 259 255 248 246 245 241 239 240 239 239 241 243 245 247 247 248 248 248 247 247 248 250 252 253 253 253 252 251 252 254 257 260 262 262 259 256 256 258 259 262 266 270 271 271 271 271 271 273 276 276 272 268 266 265 265 265 266 267 267 266 265 264 264 265 265 265 264 263 264 266 268
244 249 250 248 248 249 248 250 252 254 256 255 253 257 259 257 254 249 248 251 251 247 244 240 235 233 234 237 239 241 242 243 244 246 247 248 250 252 253 253 254 255 255 256 257 257 255 253 254 258 259 258 258 261 264 267 269 269 270 271 271 270 271 273 273 272 271 269 266 265 266 267 267 266 265 263 262 262 262 262 261 261 261 261 263 265
246 249 250 247 246 247 246 248 250 252 252 251 254 262 264 259 255 253 252 254 255 254 251 248 241 234 232 232 233 236 238 237 236 239 243 245 246 248 250 251 253 255 255 256 257 258 257 255 254 257 259 258 259 261 264 264 264 263 264 265 265 267 267 266 265 266 267 265 264 264 265 265 265 266 266 265 263 262 262 261 260 260 261 261 261 262
248 249 249 246 245 244 243 245 249 248 248 251 257 259 258 256 255 254 251 248 249 249 248 251 253 250 247 246 247 251 252 244 237 235 239 242 243 244 245 247 249 252 254 254 255 257 257 257 257 257 258 258 258 257 257 258 258 258 259 260 260 261 262 260 259 260 260 259 260 261 262 263 264 265 265 264 263 263 264 263 263 263 264 263 262 261
246 247 248 246 245 245 244 247 252 252 249 249 248 244 243 244 244 243 241 241 244 247 251 258 261 260 260 262 262 264 264 257 247 242 242 244 246 247 248 247 248 252 254 254 255 256 257 259 259 259 259 259 259 257 256 257 258 259 259 259 258 257 257 257 257 257 256 255 256 257 259 260 261 262 261 260 259 260 262 263 263 263 263 263 263 263
246 249 249 246 245 245 244 245 249 250 247 245 243 244 246 247 244 241 242 246 250 255 260 264 266 265 266 266 264 263 264 262 257 251 250 252 254 254 254 253 253 254 256 256 256 257 258 260 261 262 263 263 262 262 260 260 260 261 260 260 259 257 256 254 252 252 251 251 251 251 252 252 252 253 254 255 255 257 261 264 264 262 261 261 262 264
249 250 251 247 245 247 246 245 246 248 248 246 246 247 248 249 248 247 250 256 262 265 267 266 264 264 263 262 262 262 263 264 263 260 258 259 261 261 260 260 259 259 260 260 259 259 260 261 262 263 264 265 265 265 265 264 264 263 262 261 261 259 257 256 254 253 253 252 251 251 251 252 251 251 253 257 259 262 266 268 266 263 261 260 261 263
251 250 251 249 246 246 248 248 248 250 251 249 247 248 250 252 253 252 253 257 261 263 262 259 258 258 258 259 262 263 264 264 264 264 262 262 263 263 263 263 263 263 263 263 263 263 262 262 262 262 263 264 264 265 265 265 265 264 264 263 263 262 261 260 260 259 258 257 257 257 258 259 259 258 259 261 263 266 268 268 265 263 263 263 263 264
252 252 252 250 248 248 249 250 250 251 251 250 248 249 251 254 255 255 255 256 257 258 258 257 258 259 260 262 263 264 265 266 266 265 264 264 264 264 264 264 263 264 264 264 264 264 263 263 262 262 261 261 262 262 263 263 263 263 264 264 263 263 263 263 263 263 263 262 262 262 263 263 262 261 260 261 263 265 267 267 267 266 265 264 264 265
250 252 253 252 250 249 249 250 251 251 252 251 250 251 253 254 255 256 257 257 257 257 257 257 258 260 262 263 264 265 266 267 267 267 267 266 267 267 267 266 266 265 265 264 264 264 263 263 262 262 261 261 261 261 261 261 261 261 262 262 262 263 263 264 264 264 265 265 265 264 263 263 263 262 262 262 263 265 266 267 267 267 266 266 266 266
246 250 252 253 253 252 251 251 250 250 250 251 252 252 254 256 257 258 259 259 259 259 259 259 260 262 263 264 265 265 266 266 267 268 267 268 268 268 268 268 267 267 266 266 265 264 264 264 263 263 262 262 262 262 261 261 261 261 261 261 261 261 262 263 263 264 264 265 266 265 265 265 265 265 264 264 265 266 267 267 268 268 267 266 266 265
245 247 250 254 257 256 254 252 251 251 251 252 254 256 257 258 259 259 259 260 260 260 261 262 262 264 265 266 266 266 266 267 267 267 267 268 268 268 268 268 267 267 267 266 266 266 265 265 265 264 264 264 264 263 263 263 262 262 262 262 262 262 262 262 262 263 263 264 265 266 267 267 267 267 267 267 267 267 267 267 267 267 266 265 264 263
244 246 250 254 255 254 252 252 252 254 255 255 256 258 259 259 259 260 260 261 262 263 263 264 265 266 266 267 268 268 269 269 269 269 269 269 268 268 268 268 267 268 267 267 266 266 265 265 265 265 265 265 265 265 265 264 264 263 263 263 263 263 262 262 262 263 263 264 264 266 267 267 267 267 267 266 266 265 264 264 263 263 262 262 262 261
247 247 248 250 250 250 253 254 255 256 257 257 257 258 258 257 258 259 261 262 263 264 265 265 266 266 267 267 268 269 269 270 270 270 270 269 268 268 268 268 268 268 268 267 266 266 266 267 266 266 266 266 265 265 265 264 264 264 264 264 264 263 263 263 263 263 263 263 263 262 263 263 263 262 262 261 260 259 259 258 258 257 258 259 258 259
249 249 248 249 250 250 252 254 256 258 260 261 261 261 261 260 260 259 260 261 262 263 264 264 265 265 266 266 267 267 267 268 269 269 269 268 269 269 269 269 269 268 268 268 269 268 268 268 269 268 268 268 268 267 266 266 266 266 266 266 265 265 264 264 263 263 263 263 262 261 260 260 260 261 262 262 261 260 259 258 258 258 259 261 261 260